Date String (YYYY-MM-DD hh:mm:ss) UTC,Instrument flags,Ambient pressure (hPa),Sample flow (lpm),Bypass flow (lpm),Sample temperature (°C),Ambient temperature (°C),ASC tube jacket temperature (°C),LED temperature (°C),Box temperature (°C),Sample RH (%),Span deviation,Mass concentration (μg/m³),Mass concentration (μg/m³),Mass concentration (μg/m³)
DateTimeUTC,F1_M11,P_M11,Q1_M11,Q2_M11,T1_M11,T2_M11,T3_M11,T4_M11,T5_M11,U1_M11,ZSPAN_M11,X0_M11,X2_M11,X1_M11
2021-10-29 14:00:00,,0830.2,5.00,0.00,25.6,24.7,00.0,34.6,27.4,13.3,0000.0,0007.09,0003.46,0003.03
2021-10-29 14:01:00,,0830.3,4.99,0.00,25.6,24.7,00.0,34.6,27.4,13.3,0000.0,0006.98,0003.45,0003.03
2021-10-29 14:02:00,,0830.3,5.00,0.00,25.6,24.7,00.0,34.6,27.5,13.3,0000.0,0007.05,0003.43,0003.02
2021-10-29 14:03:00,,0830.3,5.01,0.00,25.6,24.7,00.0,34.6,27.4,13.2,0000.0,0007.08,0003.43,0003.01
2021-10-29 14:04:00,,0830.3,5.00,0.00,25.6,24.7,00.0,34.6,27.4,13.2,0000.0,0007.40,0003.44,0003.02
2021-10-29 14:05:00,,0830.3,4.99,0.00,25.6,24.8,00.0,34.6,27.5,13.2,0000.0,0007.73,0003.39,0002.93
2021-10-29 14:06:00,,0830.3,5.01,0.00,25.6,24.8,00.0,34.6,27.5,13.2,0000.0,0007.65,0003.32,0002.82
2021-10-29 14:07:00,,0830.3,4.99,0.00,25.6,24.8,00.0,34.6,27.5,13.2,0000.0,0007.55,0003.26,0002.72
2021-10-29 14:08:00,,0830.3,5.01,0.00,25.6,24.8,00.0,34.6,27.5,13.1,0000.0,0007.36,0003.20,0002.58
2021-10-29 14:09:00,,0830.2,5.00,0.00,25.6,24.8,00.0,34.6,27.5,13.2,0000.0,0007.75,0003.09,0002.45
2021-10-29 14:10:00,,0830.2,5.02,0.00,25.7,24.8,00.0,34.6,27.5,13.2,0000.0,0007.20,0002.97,0002.34
2021-10-29 14:11:00,,0830.2,4.99,0.00,25.7,24.8,00.0,34.6,27.5,13.1,0000.0,0006.97,0002.88,0002.23
2021-10-29 14:12:00,,0830.3,4.98,0.00,25.7,24.8,00.0,34.6,27.5,13.0,0000.0,0006.84,0002.83,0002.17
2021-10-29 14:13:00,,0830.3,5.01,0.00,25.7,24.8,00.0,34.7,27.5,13.0,0000.0,0006.63,0002.75,0002.09
2021-10-29 14:14:00,,0830.3,5.01,0.00,25.7,24.8,00.0,34.7,27.5,13.0,0000.0,0007.45,0002.65,0001.98
2021-10-29 14:15:00,,0830.3,5.00,0.00,25.7,24.8,00.0,34.7,27.6,12.8,0000.0,0007.30,0002.48,0001.85
2021-10-29 14:16:00,,0830.4,5.00,0.00,25.7,24.9,00.0,34.7,27.6,13.0,0000.0,0006.40,0002.43,0001.76
2021-10-29 14:17:00,,0830.4,5.00,0.00,25.7,24.9,00.0,34.7,27.6,12.9,0000.0,0006.28,0002.40,0001.72
2021-10-29 14:18:00,,0830.5,5.01,0.00,25.7,24.9,00.0,34.7,27.6,12.9,0000.0,0006.12,0002.34,0001.66
2021-10-29 14:19:00,,0830.5,5.00,0.00,25.7,24.9,00.0,34.7,27.6,13.0,0000.0,0005.84,0002.25,0001.63
2021-10-29 14:20:00,,0830.4,4.99,0.00,25.7,24.9,00.0,34.7,27.6,13.1,0000.0,0005.24,0002.19,0001.61
2021-10-29 14:21:00,,0830.4,5.02,0.00,25.8,24.9,00.0,34.7,27.6,13.1,0000.0,0004.81,0002.18,0001.58
2021-10-29 14:22:00,,0830.4,5.00,0.00,25.8,25.0,00.0,34.7,27.7,13.2,0000.0,0004.70,0002.10,0001.52
2021-10-29 14:23:00,,0830.4,4.99,0.00,25.8,25.0,00.0,34.7,27.7,13.4,0000.0,0004.78,0002.11,0001.50
2021-10-29 14:24:00,,0830.4,5.00,0.00,25.8,25.0,00.0,34.7,27.7,13.5,0000.0,0004.90,0002.19,0001.55
2021-10-29 14:25:00,,0830.4,5.00,0.00,25.8,25.0,00.0,34.8,27.7,13.4,0000.0,0004.76,0002.30,0001.65
2021-10-29 14:26:00,,0830.4,5.01,0.00,25.8,25.0,00.0,34.8,27.7,13.3,0000.0,0004.73,0002.46,0001.80
2021-10-29 14:27:00,,0830.4,4.99,0.00,25.8,25.0,00.0,34.8,27.7,13.3,0000.0,0005.76,0002.61,0001.97
2021-10-29 14:28:00,,0830.4,4.99,0.00,25.8,25.0,00.0,34.8,27.7,13.3,0000.0,0005.93,0002.73,0002.11
2021-10-29 14:29:00,,0830.4,5.00,0.00,25.8,25.0,00.0,34.8,27.7,13.3,0000.0,0006.22,0002.90,0002.25
2021-10-29 14:30:00,,0830.4,5.01,0.00,25.9,25.0,00.0,34.8,27.8,13.4,0000.0,0006.64,0003.03,0002.39
2021-10-29 14:31:00,,0830.4,5.01,0.00,25.9,25.0,00.0,34.8,27.8,13.4,0000.0,0006.77,0003.13,0002.48
2021-10-29 14:32:00,,0830.4,4.99,0.00,25.9,25.0,00.0,34.8,27.8,13.4,0000.0,0007.13,0003.19,0002.57
2021-10-29 14:33:00,,0830.4,5.01,0.00,25.9,25.0,00.0,34.8,27.8,13.3,0000.0,0007.85,0003.25,0002.67
2021-10-29 14:34:00,,0830.4,4.99,0.00,25.9,25.0,00.0,34.8,27.7,13.3,0000.0,0007.93,0003.27,0002.73
2021-10-29 14:35:00,,0830.4,5.00,0.00,25.9,25.0,00.0,34.8,27.7,13.4,0000.0,0007.93,0003.26,0002.74
2021-10-29 14:36:00,,0830.4,5.00,0.00,25.9,25.0,00.0,34.8,27.7,13.4,0000.0,0008.02,0003.25,0002.72
2021-10-29 14:37:00,,0830.4,4.99,0.00,25.9,25.0,00.0,34.8,27.7,13.4,0000.0,0007.74,0003.21,0002.68
2021-10-29 14:38:00,,0830.4,5.00,0.00,25.8,25.0,00.0,34.8,27.7,13.4,0000.0,0007.21,0003.17,0002.60
2021-10-29 14:39:00,,0830.4,5.01,0.00,25.9,25.0,00.0,34.8,27.7,13.3,0000.0,0007.08,0003.13,0002.55
2021-10-29 14:40:00,,0830.4,5.01,0.00,25.8,25.0,00.0,34.9,27.7,13.4,0000.0,0007.15,0003.07,0002.46
2021-10-29 14:41:00,,0830.3,5.00,0.00,25.9,25.0,00.0,34.8,27.7,13.3,0000.0,0007.07,0003.04,0002.37
2021-10-29 14:42:00,,0830.4,5.00,0.00,25.9,25.0,00.0,34.8,27.7,13.3,0000.0,0006.87,0002.95,0002.29
2021-10-29 14:43:00,,0830.4,4.99,0.00,25.9,25.0,00.0,34.9,27.7,13.3,0000.0,0006.60,0002.88,0002.19
2021-10-29 14:44:00,,0830.4,5.01,0.00,25.9,25.1,00.0,34.9,27.7,13.2,0000.0,0005.49,0002.75,0002.07
2021-10-29 14:45:00,,0830.4,5.01,0.00,25.9,25.1,00.0,34.9,27.7,13.1,0000.0,0005.23,0002.63,0001.95
2021-10-29 14:46:00,,0830.4,5.00,0.00,25.9,25.1,00.0,34.9,27.8,13.1,0000.0,0005.01,0002.50,0001.83
2021-10-29 14:47:00,,0830.4,5.00,0.00,25.9,25.1,00.0,34.9,27.8,13.2,0000.0,0004.86,0002.35,0001.71
2021-10-29 14:48:00,,0830.4,5.01,0.00,26.0,25.1,00.0,34.9,27.9,13.4,0000.0,0005.20,0002.30,0001.67
2021-10-29 14:49:00,,0830.5,5.02,0.00,26.0,25.1,00.0,34.9,27.8,13.5,0000.0,0004.93,0002.27,0001.64
2021-10-29 14:50:00,,0830.5,5.00,0.00,26.0,25.1,00.0,34.9,27.9,13.7,0000.0,0005.07,0002.30,0001.63
2021-10-29 14:51:00,,0830.5,4.99,0.00,26.0,25.2,00.0,34.9,27.9,13.8,0000.0,0004.99,0002.32,0001.63
2021-10-29 14:52:00,,0830.5,4.99,0.00,26.0,25.2,00.0,34.9,27.9,13.8,0000.0,0004.70,0002.28,0001.65
2021-10-29 14:53:00,,0830.5,5.01,0.00,26.0,25.2,00.0,35.0,27.9,13.8,0000.0,0004.82,0002.34,0001.70
2021-10-29 14:54:00,,0830.5,5.00,0.00,26.0,25.2,00.0,35.0,27.9,13.9,0000.0,0004.85,0002.37,0001.76
2021-10-29 14:55:00,,0830.4,5.01,0.00,26.0,25.2,00.0,35.0,27.9,14.1,0000.0,0004.94,0002.48,0001.85
2021-10-29 14:56:00,,0830.4,4.99,0.00,26.0,25.2,00.0,35.0,27.9,14.0,0000.0,0005.26,0002.62,0001.94
2021-10-29 14:57:00,,0830.4,5.01,0.00,26.0,25.2,00.0,35.0,27.9,13.8,0000.0,0005.65,0002.77,0002.02
2021-10-29 14:58:00,,0830.4,5.01,0.00,26.0,25.2,00.0,35.0,27.9,13.6,0000.0,0005.54,0002.88,0002.07
2021-10-29 14:59:00,,0830.5,5.00,0.00,26.0,25.2,00.0,35.0,27.9,13.7,0000.0,0004.88,0002.85,0002.06
